SCP
0 0 0 0 0 0 0 0 0 0 0 0 0 0 0 0 0 0 0 0 0 0 0 0 -0 -0 0 0 0 0 0 0 0 0 0 0 0 0 0 0 0 0 0 0 0 0 0
0 0 0 0 0 0 0 0 0 0 0 0 0 0 0 0 0 0 0 0 0 0 0 0 -0 -0 -0 0 0 0 0 0 -0 0 0 0 0 0 0 0 0 0 0 0 0 0 0
0 0 0 0 0 0 0 0 0 0 0 0 0 0 0 0 0 0 0 0 0 0 0 0 0 -0 -0 -0 0 0 0 -0 -0 0 0 0 0 0 0 0 0 0 0 0 0 0 0
0 0 0 0 0 0 0 0 0 0 0 0 0 0 0 0 0 0 -0 -0 0 0 0 0 0 0 -0 -0 0 0 0 -0 -0 0 0 0 0 0 0 0 0 0 0 0 0 0 0
0 0 0 0 0 0 0 0 0 0 0 0 0 0 0 0 0 0 -0 -0 -0 0 0 0 0 0 0 -0 -0 0 0 0 -0 -0 0 0 0 0 0 0 0 0 0 0 0 0 0
0 0 0 0 0 0 0 0 0 0 0 0 0 0 0 0 0 0 0 -0 -0 0 0 0 0 0 0 0 -0 0 0 0 0 0 0 0 0 0 0 0 0 0 0 0 0 0 0
0 0 0 0 0 0 0 0 0 0 0 0 0 0 0 0 0 0 0 0 0 0 0 0 0 0 0 0 -0 0 0 0 0 0 0 0 0 0 0 0 0 0 0 0 -0 -0 0
0 0 0 0 0 0 0 0 0 0 0 0 0 0 0 0 0 0 0 0 0 0 0 0 0 0 0 0 -0 0 0 0 0 0 0 0 0 0 0 0 0 0 0 0 0 0 0
0 0 0 0 0 0 0 0 0 0 0 0 0 0 0 0 0 0 0 0 0 0 0 0 0 0 0 0 0 0 0 0 0 0 0 0 0 0 0 0 0 0 0 0 0 0 0
0 0 0 0 0 0 0 0 0 0 0 0 0 0 0 0 0 0 0 0 0 -0 0 0 0 0 0 0 0 0 0 0 0 -0 0 0 0 0 0 0 0 0 0 0 0 0 0
0 0 0 0 0 0 0 0 0 0 0 0 0 0 0 0 0 0 0 0 0 0 0 0 0 -0 0 0 0 0 0 0 0 0 0 0 0 0 0 0 0 0 0 0 0 0 0
0 0 0 0 0 0 0 0 0 0 0 0 0 0 0 0 0 0 0 0 0 0 0 0 -0 -0 -0 0 0 0 0 0 0 0 0 0 0 0 0 0 0 0 0 0 0 0 0
0 0 0 0 0 0 0 0 0 0 0 0 0 0 0 0 0 0 0 0 0 0 0 0 0 -0 -0 0 0 0 0 0 0 0 0 0 0 0 0 0 0 0 0 0 0 0 0
0 0 0 0 0 0 0 0 0 0 0 0 0 0 0 0 0 0 0 0 0 0 0 0 0 -0 -0 0 0 0 0 0 0 0 0 0 0 0 0 0 0 0 0 0 0 0 0
0 0 0 0 0 0 0 0 0 0 0 0 0 0 0 0 0 0 0 0 0 0 -0 -0 0 -0 -0 0 0 0 0 0 0 0 0 0 0 0 0 0 0 0 0 0 0 0 0
0 0 0 0 0 0 0 0 0 0 0 0 0 0 0 0 0 0 0 0 0 -0 -0 0 0 -0 -0 0 0 0 0 0 0 0 0 0 0 0 0 0 0 0 0 0 0 0 0
0 0 0 0 0 0 0 0 0 0 0 0 0 0 0 0 0 0 0 0 0 -0 -0 -0 -0 0 -0 0 0 0 0 0 0 0 0 0 0 0 0 0 0 0 0 0 0 0 0
0 0 0 0 0 0 0 0 0 0 0 0 0 0 0 0 0 0 0 0 -0 0 -0 -0 -0 -0 -0 0 0 0 0 0 0 0 0 0 0 0 0 0 0 0 0 0 0 0 0
0 0 0 0 0 0 0 0 -0 -0 -0 0 0 0 0 0 0 0 0 0 0 -0 -0 -0 -0 -0 0 0 0 0 0 0 0 0 0 0 0 0 0 0 0 0 0 0 0 0 0
0 0 0 0 0 0 0 0 -0 -0 -0 0 0 0 0 0 0 0 0 0 0 -0 -0 -0 -0 -0 0 0 0 0 0 0 0 0 0 0 0 0 0 0 0 0 0 0 0 0 0
0 0 0 0 0 0 0 0 -0 -0 -0 0 0 0 0 0 0 0 0 0 0 0 -0 -0 -0 -0 -0 0 0 0 0 0 0 0 0 0 0 0 0 0 0 0 0 0 0 0 0
0 0 0 0 0 0 0 0 0 -0 -0 0 0 0 0 0 0 0 0 0 0 0 0 0 -0 -0 -0 -0 0 0 0 0 0 0 0 0 0 0 0 0 0 0 0 0 -0 -0 -0
0 0 0 0 0 0 0 0 0 -0 -0 -0 0 0 0 0 0 0 0 0 0 0 0 -0 -0 -0 -0 -0 0 0 0 0 0 0 0 0 0 0 0 0 0 0 0 0 0 0 0
0 0 0 0 0 0 0 0 0 -0 -0 0 0 0 0 0 0 0 0 0 0 0 0 0 -0 -0 -0 0 0 0 0 0 0 0 0 0 0 0 0 0 0 0 0 0 0 0 0
0 0 0 0 0 0 0 0 0 -0 -0 0 0 0 0 0 0 0 0 0 0 0 0 0 -0 -0 -0 -0 -0 0 0 0 0 0 0 0 0 0 0 0 0 0 0 0 0 0 0
0 0 0 0 0 0 0 0 0 -0 -0 0 0 0 0 0 0 0 0 0 0 0 0 -0 -0 -0 -0 -0 -0 -0 -0 0 0 0 0 0 0 0 0 0 0 0 0 0 0 0 0
0 0 0 0 0 0 0 0 0 -0 -0 0 -0 0 0 0 0 0 0 0 0 0 0 0 0 -0 0 -0 -0 -0 -0 0 0 0 0 0 0 0 0 0 0 0 0 0 0 0 0
0 0 0 0 0 0 0 0 0 0 -0 0 -0 0 0 0 0 0 0 0 0 0 0 -0 0 -0 -0 -0 -0 -0 -0 -0 0 0 0 0 0 0 0 0 0 0 0 0 0 0 0
0 0 0 0 0 0 0 0 0 -0 0 0 0 0 0 0 0 0 0 0 0 0 0 0 0 0 0 -0 -0 -0 -0 -0 -0 0 0 0 0 0 0 0 0 0 0 0 0 0 0
Wind_Speed_500mb
41 43 38 42 44 43 42 42 44 48 40 33 32 36 38 24 28 33 27 24 25 26 25 25 29 24 17 12 13 9 15 13 23 34 23 22 41 52 45 37 38 25 42 33 38 34 33
48 49 46 44 44 44 42 42 46 47 39 36 31 38 43 37 22 27 27 23 23 22 24 26 28 27 16 16 4 9 10 7 6 25 23 26 28 47 42 33 42 19 2 21 36 37 34
49 46 48 48 46 43 44 41 42 47 40 38 34 38 40 43 28 22 25 24 23 21 20 21 17 13 19 18 6 9 9 5 16 33 19 21 13 32 34 31 36 36 14 14 22 51 21
65 48 52 47 48 44 43 44 42 45 43 40 35 37 39 42 39 23 21 22 21 20 19 17 13 8 15 13 9 11 10 5 5 34 27 12 10 21 26 18 29 24 13 19 28 29 10
66 51 50 55 45 42 42 42 44 44 44 41 38 35 39 39 36 24 18 17 15 16 19 18 11 11 12 18 10 7 8 9 10 10 28 25 15 15 15 33 24 34 17 37 11 21 9
57 50 53 56 46 42 43 40 43 46 47 47 35 34 38 37 32 21 12 15 12 14 16 9 13 15 9 16 40 12 3 12 14 19 13 3 7 13 26 31 31 28 23 37 27 25 34
52 51 52 54 49 45 42 40 40 44 49 46 38 34 36 30 24 18 7 9 6 8 9 8 16 19 27 34 7 14 17 15 18 11 3 7 4 26 40 39 24 34 37 38 36 29 35
57 56 53 51 53 44 43 39 38 41 48 47 36 33 34 24 16 13 5 4 5 6 11 10 15 19 18 22 9 12 21 23 22 10 16 7 11 31 25 19 12 33 33 21 13 23 20
68 54 54 50 53 40 42 39 37 40 46 46 37 33 31 21 10 6 9 7 9 8 10 4 9 16 12 15 16 20 18 20 20 16 23 4 13 22 23 20 20 22 27 25 22 16 28
70 55 53 54 53 42 41 37 37 39 44 45 35 34 23 11 4 6 3 8 7 5 5 11 5 7 9 6 10 11 14 14 5 20 18 7 21 21 26 25 25 26 20 17 16 25 15
73 73 54 53 52 43 40 35 35 38 41 40 32 28 15 7 3 1 9 5 2 1 1 7 6 6 8 17 5 9 11 8 13 18 8 5 18 28 25 19 17 11 10 18 15 18 10
78 73 53 46 55 41 39 34 34 36 37 36 29 17 2 5 5 8 5 4 3 5 3 1 2 4 9 17 8 7 7 15 14 15 12 7 11 4 13 15 9 19 21 11 9 11 10
75 81 63 50 52 43 38 33 33 33 32 30 21 3 7 6 2 5 5 2 4 5 2 6 8 6 10 8 6 2 8 14 9 12 4 10 6 9 6 17 13 20 30 11 9 6 9
77 82 71 49 51 45 35 32 32 30 27 22 9 10 8 8 14 9 5 4 7 4 6 6 11 14 5 3 5 2 16 12 10 11 7 6 7 17 3 16 10 21 27 7 12 13 18
71 79 78 57 52 50 34 30 31 27 22 14 7 12 10 11 10 5 2 5 3 5 8 17 13 6 7 10 4 4 3 11 10 18 2 10 7 7 3 8 9 14 10 8 6 5 4
73 81 77 62 56 53 34 30 29 24 16 8 13 11 9 12 5 2 3 5 1 2 3 11 6 5 8 14 10 7 8 10 16 16 8 4 9 1 5 9 2 5 12 6 3 4 7
64 81 79 70 63 57 34 30 27 21 11 12 17 9 8 13 6 6 3 4 3 9 5 5 4 10 10 10 13 10 12 4 10 18 8 11 8 11 11 14 20 8 6 9 6 4 6
60 82 81 84 73 57 36 31 26 19 12 26 14 5 15 18 7 4 5 4 1 11 8 5 5 5 7 14 8 7 12 9 13 19 10 1 10 7 23 5 8 15 24 22 14 9 9
53 84 88 78 78 53 37 34 27 20 21 30 14 8 15 20 5 7 6 5 5 9 9 6 5 3 3 10 6 9 12 6 12 10 16 12 11 9 6 8 9 13 22 20 25 8 10
48 77 84 72 72 52 40 35 28 24 26 35 15 7 8 16 14 8 9 12 12 6 6 3 3 6 10 11 3 12 12 8 9 7 7 5 7 9 8 6 7 23 32 33 26 6 19
49 73 83 61 72 49 43 35 31 28 32 37 13 8 13 9 14 18 7 5 14 11 6 8 6 8 7 8 9 10 11 19 12 14 11 8 7 2 2 6 5 7 21 32 32 34 26
30 88 78 70 72 51 46 38 33 31 40 35 14 10 11 8 8 22 13 17 17 10 10 11 5 6 6 3 6 14 15 15 10 14 10 5 3 3 2 2 6 14 19 22 32 36 37
53 89 80 76 73 52 45 40 39 37 46 17 28 21 10 16 16 17 18 13 14 9 6 10 5 6 9 8 6 6 4 4 7 15 18 12 10 7 5 5 7 16 27 29 22 28 22
46 95 67 86 74 56 47 41 38 39 49 29 28 23 11 9 15 17 10 10 13 5 7 11 5 6 5 3 4 10 10 7 12 6 12 11 13 6 2 4 9 6 5 3 12 18 18
69 72 66 89 76 61 51 41 41 40 44 40 26 23 11 7 17 9 14 14 10 8 7 11 11 5 2 5 7 11 8 8 7 3 10 10 13 5 5 12 14 11 4 5 8 8 2
49 95 104 91 68 56 48 48 44 40 40 36 31 30 11 16 9 10 18 14 11 14 9 6 8 8 2 7 8 10 10 9 11 8 4 8 12 9 6 7 7 15 12 5 4 9 8
67 105 104 80 66 56 52 47 42 41 38 35 39 33 15 14 8 8 7 11 5 4 5 9 4 4 7 8 8 9 8 3 9 12 11 7 9 17 13 9 9 12 13 7 9 7 9
87 112 94 77 64 57 55 50 45 41 38 40 38 37 24 15 15 10 7 9 8 2 8 9 9 4 3 4 6 7 6 9 6 3 11 16 11 9 10 8 12 13 11 7 10 8 15
63 108 92 77 65 62 56 50 44 41 39 35 42 36 33 21 18 24 22 16 13 12 7 5 6 6 5 3 4 4 5 3 9 7 6 6 3 2 6 2 9 8 9 11 14 16 22
Wind_Direction_500mb
320 326 329 332 334 335 335 333 339 337 336 341 335 328 325 307 313 318 325 307 303 309 310 309 314 327 343 281 281 321 331 342 199 216 208 200 203 200 207 211 209 219 192 188 186 184 164
311 315 315 329 328 329 331 329 335 333 331 334 331 325 327 327 296 310 316 314 308 310 317 317 313 320 317 279 357 328 331 358 233 226 216 190 205 200 211 203 207 182 67 229 198 198 177
301 314 310 318 326 324 325 327 331 331 328 330 326 322 321 323 310 287 303 307 304 309 317 333 334 318 297 271 325 350 346 307 173 219 196 194 260 234 210 180 199 178 200 325 242 240 192
290 300 304 307 316 319 321 324 327 329 324 326 326 320 317 317 317 288 282 299 298 299 298 309 325 308 283 288 267 313 314 249 189 214 212 250 195 234 212 161 166 163 179 214 246 199 179
302 293 300 302 309 315 315 321 322 326 323 324 323 318 315 312 314 299 278 291 294 293 298 308 323 293 283 299 296 308 280 237 186 185 238 262 216 176 173 162 177 178 166 208 178 284 179
289 290 290 302 301 314 310 318 319 321 321 326 327 320 311 311 312 298 276 299 284 282 312 280 271 280 235 265 281 251 187 181 176 177 165 211 192 181 181 182 186 179 195 200 205 200 233
309 290 288 302 293 309 306 314 317 317 321 325 326 318 317 316 311 305 260 330 308 242 248 298 315 298 311 314 278 225 162 175 173 161 104 11 150 181 182 192 197 185 195 207 184 180 199
295 289 283 293 286 304 303 311 315 315 319 323 321 322 319 316 307 296 214 278 292 296 301 271 306 307 356 0 91 155 145 174 154 126 111 38 185 187 177 174 239 183 192 207 147 143 205
290 278 276 279 278 299 301 309 311 313 319 321 323 321 320 318 305 276 216 243 257 320 263 42 344 354 17 36 95 112 180 127 101 131 114 57 141 186 164 160 181 176 183 185 178 178 212
284 275 271 279 274 297 297 305 305 310 318 320 324 319 319 312 356 234 237 236 249 318 280 26 37 19 348 73 73 65 101 110 136 108 90 28 177 161 157 175 185 173 184 167 141 175 206
276 274 267 280 264 288 292 300 301 308 317 321 322 320 318 226 216 161 243 188 251 345 252 9 38 8 31 87 166 35 48 109 120 126 85 135 189 174 168 161 198 117 160 155 183 224 314
273 277 260 261 262 279 288 295 296 306 316 318 323 322 322 192 201 239 204 136 33 248 126 119 60 62 87 49 59 110 98 72 89 129 3 73 346 183 131 97 36 137 147 138 200 234 244
267 269 255 251 259 266 281 289 292 303 315 316 324 0 140 129 150 184 147 115 250 288 161 159 131 162 66 120 95 74 168 142 151 130 283 126 127 120 271 136 143 172 159 152 180 194 243
261 267 257 248 251 254 273 283 287 298 309 310 316 138 137 128 127 109 117 211 256 157 184 158 134 105 89 176 74 47 162 134 113 81 128 156 160 185 6 197 182 209 196 171 204 199 192
250 260 261 244 248 250 263 273 280 292 302 303 175 151 141 139 130 110 238 212 100 149 156 150 150 156 127 149 164 145 239 146 130 208 230 159 83 111 57 327 291 176 220 12 341 43 343
254 253 259 243 241 242 250 261 271 282 289 263 155 162 154 163 159 57 276 311 130 193 151 180 190 199 148 141 145 215 198 150 147 215 256 105 113 18 84 291 143 284 164 186 268 231 220
238 250 257 240 238 233 238 248 260 269 262 186 157 179 194 177 194 233 258 282 247 187 216 250 140 151 120 133 148 173 176 183 208 180 239 183 128 157 158 219 186 169 197 233 271 251 299
233 245 253 243 231 225 227 236 247 250 209 168 173 178 179 179 241 222 212 210 291 176 204 250 286 22 139 138 169 165 170 267 188 170 189 215 103 156 196 59 314 284 237 218 226 194 240
231 242 248 255 229 220 217 225 236 229 198 167 164 136 172 178 229 208 222 222 253 210 203 191 173 297 185 160 137 126 133 145 173 182 177 173 151 131 142 267 226 232 223 235 239 284 210
280 239 250 246 222 217 211 216 224 213 193 163 167 143 155 208 270 251 211 190 175 217 247 244 126 188 173 160 99 141 130 141 187 219 319 257 194 254 218 64 192 205 218 221 229 196 236
321 246 248 243 216 210 208 211 213 204 191 178 189 182 175 180 219 212 217 178 177 174 232 222 190 239 200 153 145 132 114 135 174 164 203 249 221 129 77 56 89 220 231 224 221 230 241
286 233 248 231 212 203 203 206 206 197 184 184 181 170 177 147 180 192 187 197 202 143 181 178 258 174 197 259 17 174 159 175 184 190 204 188 149 117 269 296 261 258 245 229 232 236 241
237 232 237 214 212 192 200 202 199 196 186 187 202 174 187 157 173 195 192 180 185 177 87 84 114 182 194 63 340 5 51 263 153 192 192 184 152 180 205 190 263 261 242 227 232 234 249
224 234 242 211 207 185 197 196 196 197 196 197 184 163 196 170 196 200 152 164 166 151 129 110 124 206 47 313 17 117 97 118 139 127 193 188 184 164 115 212 232 90 98 14 255 246 258
296 231 236 209 202 182 188 188 200 196 201 208 192 170 187 143 182 163 170 157 146 150 109 114 80 49 323 183 167 159 160 161 154 172 192 223 180 181 226 220 295 187 174 168 208 157 104
273 210 224 205 188 179 177 191 193 192 194 198 197 190 144 148 167 128 157 174 170 185 148 103 82 76 180 222 213 211 206 183 172 158 210 234 258 238 192 266 262 93 136 179 226 182 81
207 209 210 190 176 174 179 186 190 189 187 187 187 186 135 110 103 141 163 161 135 203 151 135 96 102 5 205 228 228 196 346 198 193 175 193 228 227 223 256 301 112 152 167 234 92 12
204 210 201 182 172 172 181 181 188 186 183 181 180 176 147 108 96 91 85 123 132 192 203 133 154 128 94 233 220 207 251 188 235 80 169 187 199 206 224 230 252 114 118 243 21 26 7
218 208 192 175 169 174 177 178 181 181 178 181 166 164 144 112 118 114 100 105 125 139 108 59 87 97 112 144 261 306 202 184 253 200 180 234 324 279 227 120 89 103 54 66 28 1 346
Wind_Speed_850mb
41 43 38 42 44 43 42 42 44 48 40 33 32 36 38 24 28 33 27 24 25 26 25 25 29 24 17 12 13 9 15 13 23 34 23 22 41 52 45 37 38 25 42 33 38 34 33
48 49 46 44 44 44 42 42 46 47 39 36 31 38 43 37 22 27 27 23 23 22 24 26 28 27 16 16 4 9 10 7 6 25 23 26 28 47 42 33 42 19 2 21 36 37 34
49 46 48 48 46 43 44 41 42 47 40 38 34 38 40 43 28 22 25 24 23 21 20 21 17 13 19 18 6 9 9 5 16 33 19 21 13 32 34 31 36 36 14 14 22 51 21
65 48 52 47 48 44 43 44 42 45 43 40 35 37 39 42 39 23 21 22 21 20 19 17 13 8 15 13 9 11 10 5 5 34 27 12 10 21 26 18 29 24 13 19 28 29 10
66 51 50 55 45 42 42 42 44 44 44 41 38 35 39 39 36 24 18 17 15 16 19 18 11 11 12 18 10 7 8 9 10 10 28 25 15 15 15 33 24 34 17 37 11 21 9
57 50 53 56 46 42 43 40 43 46 47 47 35 34 38 37 32 21 12 15 12 14 16 9 13 15 9 16 40 12 3 12 14 19 13 3 7 13 26 31 31 28 23 37 27 25 34
52 51 52 54 49 45 42 40 40 44 49 46 38 34 36 30 24 18 7 9 6 8 9 8 16 19 27 34 7 14 17 15 18 11 3 7 4 26 40 39 24 34 37 38 36 29 35
57 56 53 51 53 44 43 39 38 41 48 47 36 33 34 24 16 13 5 4 5 6 11 10 15 19 18 22 9 12 21 23 22 10 16 7 11 31 25 19 12 33 33 21 13 23 20
68 54 54 50 53 40 42 39 37 40 46 46 37 33 31 21 10 6 9 7 9 8 10 4 9 16 12 15 16 20 18 20 20 16 23 4 13 22 23 20 20 22 27 25 22 16 28
70 55 53 54 53 42 41 37 37 39 44 45 35 34 23 11 4 6 3 8 7 5 5 11 5 7 9 6 10 11 14 14 5 20 18 7 21 21 26 25 25 26 20 17 16 25 15
73 73 54 53 52 43 40 35 35 38 41 40 32 28 15 7 3 1 9 5 2 1 1 7 6 6 8 17 5 9 11 8 13 18 8 5 18 28 25 19 17 11 10 18 15 18 10
78 73 53 46 55 41 39 34 34 36 37 36 29 17 2 5 5 8 5 4 3 5 3 1 2 4 9 17 8 7 7 15 14 15 12 7 11 4 13 15 9 19 21 11 9 11 10
75 81 63 50 52 43 38 33 33 33 32 30 21 3 7 6 2 5 5 2 4 5 2 6 8 6 10 8 6 2 8 14 9 12 4 10 6 9 6 17 13 20 30 11 9 6 9
77 82 71 49 51 45 35 32 32 30 27 22 9 10 8 8 14 9 5 4 7 4 6 6 11 14 5 3 5 2 16 12 10 11 7 6 7 17 3 16 10 21 27 7 12 13 18
71 79 78 57 52 50 34 30 31 27 22 14 7 12 10 11 10 5 2 5 3 5 8 17 13 6 7 10 4 4 3 11 10 18 2 10 7 7 3 8 9 14 10 8 6 5 4
73 81 77 62 56 53 34 30 29 24 16 8 13 11 9 12 5 2 3 5 1 2 3 11 6 5 8 14 10 7 8 10 16 16 8 4 9 1 5 9 2 5 12 6 3 4 7
64 81 79 70 63 57 34 30 27 21 11 12 17 9 8 13 6 6 3 4 3 9 5 5 4 10 10 10 13 10 12 4 10 18 8 11 8 11 11 14 20 8 6 9 6 4 6
60 82 81 84 73 57 36 31 26 19 12 26 14 5 15 18 7 4 5 4 1 11 8 5 5 5 7 14 8 7 12 9 13 19 10 1 10 7 23 5 8 15 24 22 14 9 9
53 84 88 78 78 53 37 34 27 20 21 30 14 8 15 20 5 7 6 5 5 9 9 6 5 3 3 10 6 9 12 6 12 10 16 12 11 9 6 8 9 13 22 20 25 8 10
48 77 84 72 72 52 40 35 28 24 26 35 15 7 8 16 14 8 9 12 12 6 6 3 3 6 10 11 3 12 12 8 9 7 7 5 7 9 8 6 7 23 32 33 26 6 19
49 73 83 61 72 49 43 35 31 28 32 37 13 8 13 9 14 18 7 5 14 11 6 8 6 8 7 8 9 10 11 19 12 14 11 8 7 2 2 6 5 7 21 32 32 34 26
30 88 78 70 72 51 46 38 33 31 40 35 14 10 11 8 8 22 13 17 17 10 10 11 5 6 6 3 6 14 15 15 10 14 10 5 3 3 2 2 6 14 19 22 32 36 37
53 89 80 76 73 52 45 40 39 37 46 17 28 21 10 16 16 17 18 13 14 9 6 10 5 6 9 8 6 6 4 4 7 15 18 12 10 7 5 5 7 16 27 29 22 28 22
46 95 67 86 74 56 47 41 38 39 49 29 28 23 11 9 15 17 10 10 13 5 7 11 5 6 5 3 4 10 10 7 12 6 12 11 13 6 2 4 9 6 5 3 12 18 18
69 72 66 89 76 61 51 41 41 40 44 40 26 23 11 7 17 9 14 14 10 8 7 11 11 5 2 5 7 11 8 8 7 3 10 10 13 5 5 12 14 11 4 5 8 8 2
49 95 104 91 68 56 48 48 44 40 40 36 31 30 11 16 9 10 18 14 11 14 9 6 8 8 2 7 8 10 10 9 11 8 4 8 12 9 6 7 7 15 12 5 4 9 8
67 105 104 80 66 56 52 47 42 41 38 35 39 33 15 14 8 8 7 11 5 4 5 9 4 4 7 8 8 9 8 3 9 12 11 7 9 17 13 9 9 12 13 7 9 7 9
87 112 94 77 64 57 55 50 45 41 38 40 38 37 24 15 15 10 7 9 8 2 8 9 9 4 3 4 6 7 6 9 6 3 11 16 11 9 10 8 12 13 11 7 10 8 15
63 108 92 77 65 62 56 50 44 41 39 35 42 36 33 21 18 24 22 16 13 12 7 5 6 6 5 3 4 4 5 3 9 7 6 6 3 2 6 2 9 8 9 11 14 16 22
Wind_Direction_850mb
320 326 329 332 334 335 335 333 339 337 336 341 335 328 325 307 313 318 325 307 303 309 310 309 314 327 343 281 281 321 331 342 199 216 208 200 203 200 207 211 209 219 192 188 186 184 164
311 315 315 329 328 329 331 329 335 333 331 334 331 325 327 327 296 310 316 314 308 310 317 317 313 320 317 279 357 328 331 358 233 226 216 190 205 200 211 203 207 182 67 229 198 198 177
301 314 310 318 326 324 325 327 331 331 328 330 326 322 321 323 310 287 303 307 304 309 317 333 334 318 297 271 325 350 346 307 173 219 196 194 260 234 210 180 199 178 200 325 242 240 192
290 300 304 307 316 319 321 324 327 329 324 326 326 320 317 317 317 288 282 299 298 299 298 309 325 308 283 288 267 313 314 249 189 214 212 250 195 234 212 161 166 163 179 214 246 199 179
302 293 300 302 309 315 315 321 322 326 323 324 323 318 315 312 314 299 278 291 294 293 298 308 323 293 283 299 296 308 280 237 186 185 238 262 216 176 173 162 177 178 166 208 178 284 179
289 290 290 302 301 314 310 318 319 321 321 326 327 320 311 311 312 298 276 299 284 282 312 280 271 280 235 265 281 251 187 181 176 177 165 211 192 181 181 182 186 179 195 200 205 200 233
309 290 288 302 293 309 306 314 317 317 321 325 326 318 317 316 311 305 260 330 308 242 248 298 315 298 311 314 278 225 162 175 173 161 104 11 150 181 182 192 197 185 195 207 184 180 199
295 289 283 293 286 304 303 311 315 315 319 323 321 322 319 316 307 296 214 278 292 296 301 271 306 307 356 0 91 155 145 174 154 126 111 38 185 187 177 174 239 183 192 207 147 143 205
290 278 276 279 278 299 301 309 311 313 319 321 323 321 320 318 305 276 216 243 257 320 263 42 344 354 17 36 95 112 180 127 101 131 114 57 141 186 164 160 181 176 183 185 178 178 212
284 275 271 279 274 297 297 305 305 310 318 320 324 319 319 312 356 234 237 236 249 318 280 26 37 19 348 73 73 65 101 110 136 108 90 28 177 161 157 175 185 173 184 167 141 175 206
276 274 267 280 264 288 292 300 301 308 317 321 322 320 318 226 216 161 243 188 251 345 252 9 38 8 31 87 166 35 48 109 120 126 85 135 189 174 168 161 198 117 160 155 183 224 314
273 277 260 261 262 279 288 295 296 306 316 318 323 322 322 192 201 239 204 136 33 248 126 119 60 62 87 49 59 110 98 72 89 129 3 73 346 183 131 97 36 137 147 138 200 234 244
267 269 255 251 259 266 281 289 292 303 315 316 324 0 140 129 150 184 147 115 250 288 161 159 131 162 66 120 95 74 168 142 151 130 283 126 127 120 271 136 143 172 159 152 180 194 243
261 267 257 248 251 254 273 283 287 298 309 310 316 138 137 128 127 109 117 211 256 157 184 158 134 105 89 176 74 47 162 134 113 81 128 156 160 185 6 197 182 209 196 171 204 199 192
250 260 261 244 248 250 263 273 280 292 302 303 175 151 141 139 130 110 238 212 100 149 156 150 150 156 127 149 164 145 239 146 130 208 230 159 83 111 57 327 291 176 220 12 341 43 343
254 253 259 243 241 242 250 261 271 282 289 263 155 162 154 163 159 57 276 311 130 193 151 180 190 199 148 141 145 215 198 150 147 215 256 105 113 18 84 291 143 284 164 186 268 231 220
238 250 257 240 238 233 238 248 260 269 262 186 157 179 194 177 194 233 258 282 247 187 216 250 140 151 120 133 148 173 176 183 208 180 239 183 128 157 158 219 186 169 197 233 271 251 299
233 245 253 243 231 225 227 236 247 250 209 168 173 178 179 179 241 222 212 210 291 176 204 250 286 22 139 138 169 165 170 267 188 170 189 215 103 156 196 59 314 284 237 218 226 194 240
231 242 248 255 229 220 217 225 236 229 198 167 164 136 172 178 229 208 222 222 253 210 203 191 173 297 185 160 137 126 133 145 173 182 177 173 151 131 142 267 226 232 223 235 239 284 210
280 239 250 246 222 217 211 216 224 213 193 163 167 143 155 208 270 251 211 190 175 217 247 244 126 188 173 160 99 141 130 141 187 219 319 257 194 254 218 64 192 205 218 221 229 196 236
321 246 248 243 216 210 208 211 213 204 191 178 189 182 175 180 219 212 217 178 177 174 232 222 190 239 200 153 145 132 114 135 174 164 203 249 221 129 77 56 89 220 231 224 221 230 241
286 233 248 231 212 203 203 206 206 197 184 184 181 170 177 147 180 192 187 197 202 143 181 178 258 174 197 259 17 174 159 175 184 190 204 188 149 117 269 296 261 258 245 229 232 236 241
237 232 237 214 212 192 200 202 199 196 186 187 202 174 187 157 173 195 192 180 185 177 87 84 114 182 194 63 340 5 51 263 153 192 192 184 152 180 205 190 263 261 242 227 232 234 249
224 234 242 211 207 185 197 196 196 197 196 197 184 163 196 170 196 200 152 164 166 151 129 110 124 206 47 313 17 117 97 118 139 127 193 188 184 164 115 212 232 90 98 14 255 246 258
296 231 236 209 202 182 188 188 200 196 201 208 192 170 187 143 182 163 170 157 146 150 109 114 80 49 323 183 167 159 160 161 154 172 192 223 180 181 226 220 295 187 174 168 208 157 104
273 210 224 205 188 179 177 191 193 192 194 198 197 190 144 148 167 128 157 174 170 185 148 103 82 76 180 222 213 211 206 183 172 158 210 234 258 238 192 266 262 93 136 179 226 182 81
207 209 210 190 176 174 179 186 190 189 187 187 187 186 135 110 103 141 163 161 135 203 151 135 96 102 5 205 228 228 196 346 198 193 175 193 228 227 223 256 301 112 152 167 234 92 12
204 210 201 182 172 172 181 181 188 186 183 181 180 176 147 108 96 91 85 123 132 192 203 133 154 128 94 233 220 207 251 188 235 80 169 187 199 206 224 230 252 114 118 243 21 26 7
218 208 192 175 169 174 177 178 181 181 178 181 166 164 144 112 118 114 100 105 125 139 108 59 87 97 112 144 261 306 202 184 253 200 180 234 324 279 227 120 89 103 54 66 28 1 346